When you browse on this site, cookies collect data to enhance your experience and personalize the content and advertising you see.
Visit our Privacy Policy to learn more. By continuing to use the site, you agree to this use of cookies and data.
  • Em Portugal
  • Lista de países
  • Para 7 dias
  • Temperatura da água
  • Mapas de satélite
  • Mapa do tempo
  • Widgets de tempo
  • user-avatar
    Iniciar Sessão

    Previsão horária em Scherbovo

    Hoje, 18 Fevereiro, Segunda-feira

    Tempo Temperatura Precipitação Vento Pressão Humidade
    00:00 -5°C° 0 mm 6 m/s 743 mmHg 80%
    01:00 -5°C° 0 mm 6 m/s 743 mmHg 81%
    02:00 -7°C° 0 mm 4 m/s 743 mmHg 84%
    03:00 -7°C° 0 mm 5 m/s 744 mmHg 85%
    04:00 -7°C° 0 mm 5 m/s 745 mmHg 85%
    05:00 -8°C° 0 mm 6 m/s 745 mmHg 85%
    06:00 -8°C° 0 mm 6 m/s 746 mmHg 85%
    07:00 -9°C° 0 mm 6 m/s 747 mmHg 86%
    08:00 -8°C° 0 mm 6 m/s 747 mmHg 86%
    09:00 -8°C° 0 mm 6 m/s 748 mmHg 84%
    10:00 -6°C° 0 mm 6 m/s 748 mmHg 82%
    11:00 -7°C° 0 mm 7 m/s 749 mmHg 80%
    12:00 -6°C° 0 mm 6 m/s 749 mmHg 79%
    13:00 -6°C° 0 mm 6 m/s 750 mmHg 79%
    14:00 -6°C° 0 mm 6 m/s 750 mmHg 78%
    15:00 -6°C° 0 mm 5 m/s 751 mmHg 81%
    16:00 -7°C° 0 mm 4 m/s 751 mmHg 83%
    17:00 -7°C° 0 mm 3 m/s 752 mmHg 85%
    18:00 -8°C° 0 mm 3 m/s 752 mmHg 87%
    19:00 -9°C° 0 mm 3 m/s 752 mmHg 89%
    20:00 -10°C° 0 mm 3 m/s 753 mmHg 91%
    21:00 -10°C° 0 mm 2 m/s 753 mmHg 92%
    22:00 -10°C° 0 mm 2 m/s 754 mmHg 92%
    23:00 -10°C° 0 mm 2 m/s 754 mmHg 92%

    Amanhã, 19 Fevereiro, Terça-feira

    Tempo Temperatura Precipitação Vento Pressão Humidade
    00:00 -10°C° 0 mm 1 m/s 754 mmHg 92%
    01:00 -10°C° 0 mm 1 m/s 754 mmHg 92%
    02:00 -11°C° 0 mm 0 m/s 754 mmHg 92%
    03:00 -11°C° 0 mm 1 m/s 754 mmHg 92%
    04:00 -10°C° 0 mm 1 m/s 754 mmHg 92%
    05:00 -12°C° 0 mm 2 m/s 754 mmHg 91%
    06:00 -12°C° 0 mm 2 m/s 754 mmHg 91%
    07:00 -12°C° 0 mm 3 m/s 754 mmHg 90%
    08:00 -12°C° 0 mm 3 m/s 754 mmHg 90%
    09:00 -9°C° 0 mm 3 m/s 753 mmHg 87%
    10:00 -9°C° 0 mm 4 m/s 753 mmHg 85%
    11:00 -7°C° 0 mm 5 m/s 753 mmHg 83%
    12:00 -6°C° 0 mm 5 m/s 752 mmHg 82%
    13:00 -6°C° 0 mm 5 m/s 752 mmHg 81%
    14:00 -5°C° 0 mm 5 m/s 751 mmHg 81%
    15:00 -5°C° 0 mm 5 m/s 751 mmHg 82%
    16:00 -6°C° 0 mm 5 m/s 750 mmHg 83%
    17:00 -6°C° 0 mm 5 m/s 750 mmHg 84%
    18:00 -7°C° 0 mm 5 m/s 749 mmHg 86%
    19:00 -7°C° 0 mm 5 m/s 749 mmHg 87%
    20:00 -7°C° 0 mm 5 m/s 748 mmHg 88%
    21:00 -8°C° 0 mm 5 m/s 748 mmHg 88%
    22:00 -9°C° 0 mm 6 m/s 747 mmHg 87%
    23:00 -9°C° 0 mm 6 m/s 747 mmHg 87%

    Depois de amanhã, 20 Fevereiro, Quarta-feira

    Tempo Temperatura Precipitação Vento Pressão Humidade
    00:00 -9°C° 0 mm 6 m/s 746 mmHg 88%
    01:00 -9°C° 0 mm 6 m/s 746 mmHg 89%
    02:00 -8°C° 0 mm 6 m/s 745 mmHg 90%
    03:00 -8°C° 0 mm 6 m/s 745 mmHg 90%
    04:00 -6°C° 0 mm 6 m/s 744 mmHg 91%
    05:00 -5°C° 0 mm 6 m/s 743 mmHg 91%
    06:00 -5°C° 0 mm 6 m/s 743 mmHg 91%
    07:00 -4°C° 0 mm 6 m/s 743 mmHg 91%
    08:00 -4°C° 0 mm 6 m/s 742 mmHg 91%
    09:00 -3°C° 0 mm 6 m/s 742 mmHg 91%
    10:00 -3°C° 0 mm 6 m/s 742 mmHg 91%
    11:00 -3°C° 0 mm 6 m/s 742 mmHg 91%
    12:00 -2°C° 0.2 mm 6 m/s 741 mmHg 91%
    13:00 -2°C° 0.2 mm 6 m/s 741 mmHg 91%
    14:00 -2°C° 0.2 mm 6 m/s 741 mmHg 92%
    15:00 -1°C° 0 mm 5 m/s 741 mmHg 92%
    16:00 -1°C° 0 mm 5 m/s 741 mmHg 92%
    17:00 -1°C° 0 mm 4 m/s 741 mmHg 92%
    18:00 -1°C° 0 mm 5 m/s 741 mmHg 92%
    19:00 -1°C° 0 mm 5 m/s 741 mmHg 92%
    20:00 -1°C° 0 mm 5 m/s 741 mmHg 91%
    21:00 -1°C° 0 mm 5 m/s 741 mmHg 91%
    22:00 -1°C° 0 mm 5 m/s 741 mmHg 91%
    23:00 -1°C° 0 mm 5 m/s 740 mmHg 91%

    21 Fevereiro, Quinta-feira

    Tempo Temperatura Precipitação Vento Pressão Humidade
    00:00 -2°C° 0 mm 6 m/s 740 mmHg 91%
    01:00 -2°C° 0 mm 6 m/s 740 mmHg 91%
    02:00 -2°C° 0 mm 6 m/s 739 mmHg 90%
    03:00 -2°C° 0.2 mm 6 m/s 739 mmHg 90%
    04:00 -2°C° 0.2 mm 6 m/s 739 mmHg 90%
    05:00 -2°C° 0.2 mm 6 m/s 738 mmHg 90%
    06:00 -4°C° 0.1 mm 6 m/s 739 mmHg 88%
    07:00 -5°C° 0.1 mm 6 m/s 739 mmHg 86%
    08:00 -6°C° 0.1 mm 5 m/s 739 mmHg 85%
    09:00 -6°C° 0 mm 6 m/s 740 mmHg 84%
    10:00 -5°C° 0 mm 6 m/s 740 mmHg 83%
    11:00 -4°C° 0 mm 6 m/s 740 mmHg 82%
    12:00 -4°C° 0.1 mm 6 m/s 740 mmHg 81%
    13:00 -4°C° 0.1 mm 7 m/s 741 mmHg 81%
    14:00 -4°C° 0.1 mm 7 m/s 741 mmHg 80%
    15:00 -5°C° 0.1 mm 6 m/s 741 mmHg 79%
    16:00 -6°C° 0.1 mm 6 m/s 742 mmHg 78%
    17:00 -8°C° 0.1 mm 6 m/s 742 mmHg 77%
    18:00 -9°C° 0 mm 6 m/s 743 mmHg 79%
    19:00 -10°C° 0 mm 6 m/s 744 mmHg 80%
    20:00 -11°C° 0 mm 5 m/s 745 mmHg 81%
    21:00 -11°C° 0 mm 5 m/s 745 mmHg 81%
    22:00 -12°C° 0 mm 5 m/s 746 mmHg 81%
    23:00 -12°C° 0 mm 5 m/s 746 mmHg 82%

    22 Fevereiro, Sexta-feira

    Tempo Temperatura Precipitação Vento Pressão Humidade
    00:00 -12°C° 0 mm 5 m/s 747 mmHg 83%
    01:00 -13°C° 0 mm 5 m/s 747 mmHg 84%
    02:00 -13°C° 0 mm 5 m/s 748 mmHg 84%
    03:00 -13°C° 0 mm 5 m/s 749 mmHg 84%
    04:00 -14°C° 0 mm 5 m/s 749 mmHg 83%
    05:00 -14°C° 0 mm 5 m/s 750 mmHg 83%
    06:00 -14°C° 0 mm 5 m/s 751 mmHg 83%
    07:00 -15°C° 0 mm 6 m/s 752 mmHg 83%
    08:00 -15°C° 0 mm 6 m/s 752 mmHg 82%
    09:00 -15°C° 0 mm 6 m/s 753 mmHg 80%
    10:00 -14°C° 0 mm 7 m/s 754 mmHg 77%
    11:00 -13°C° 0 mm 7 m/s 754 mmHg 75%
    12:00 -13°C° 0 mm 7 m/s 754 mmHg 74%
    13:00 -12°C° 0 mm 7 m/s 755 mmHg 73%
    14:00 -12°C° 0 mm 7 m/s 755 mmHg 72%
    15:00 -11°C° 0 mm 6 m/s 755 mmHg 75%
    16:00 -12°C° 0 mm 5 m/s 756 mmHg 78%
    17:00 -13°C° 0 mm 5 m/s 756 mmHg 81%
    18:00 -13°C° 0 mm 5 m/s 757 mmHg 83%
    19:00 -12°C° 0 mm 4 m/s 757 mmHg 84%
    20:00 -14°C° 0 mm 4 m/s 758 mmHg 86%
    21:00 -14°C° 0 mm 4 m/s 758 mmHg 87%
    22:00 -15°C° 0 mm 4 m/s 759 mmHg 87%
    23:00 -15°C° 0 mm 4 m/s 759 mmHg 88%

    23 Fevereiro, Sábado

    Tempo Temperatura Precipitação Vento Pressão Humidade
    00:00 -16°C° 0 mm 4 m/s 759 mmHg 89%
    01:00 -15°C° 0 mm 3 m/s 759 mmHg 90%
    02:00 -16°C° 0 mm 3 m/s 759 mmHg 91%
    03:00 -16°C° 0 mm 3 m/s 759 mmHg 92%
    04:00 -16°C° 0 mm 3 m/s 759 mmHg 92%
    05:00 -17°C° 0 mm 3 m/s 759 mmHg 93%
    06:00 -16°C° 0 mm 3 m/s 759 mmHg 93%
    07:00 -16°C° 0 mm 3 m/s 759 mmHg 93%
    08:00 -16°C° 0 mm 3 m/s 759 mmHg 92%
    09:00 -15°C° 0 mm 3 m/s 759 mmHg 89%
    10:00 -13°C° 0 mm 2 m/s 759 mmHg 85%
    11:00 -10°C° 0 mm 2 m/s 758 mmHg 82%
    12:00 -10°C° 0 mm 2 m/s 758 mmHg 79%
    13:00 -9°C° 0 mm 2 m/s 757 mmHg 76%
    14:00 -8°C° 0 mm 2 m/s 756 mmHg 73%
    15:00 -8°C° 0 mm 1 m/s 756 mmHg 75%
    16:00 -9°C° 0 mm 1 m/s 756 mmHg 77%
    17:00 -10°C° 0 mm 0 m/s 756 mmHg 80%
    18:00 -10°C° 0 mm 1 m/s 756 mmHg 81%
    19:00 -11°C° 0 mm 1 m/s 756 mmHg 82%
    20:00 -11°C° 0 mm 1 m/s 756 mmHg 84%
    21:00 -11°C° 0 mm 1 m/s 756 mmHg 85%
    22:00 -12°C° 0 mm 1 m/s 756 mmHg 87%
    23:00 -12°C° 0 mm 1 m/s 756 mmHg 88%
    Mostrar mais